Weather History for Torrington, WY

Change the Weather History Date:

Thursday, March 7, 2013

  Actual Average Record
Temperature  
Mean Temperature 42 °F 36 °F  
Max Temperature 65 °F 49 °F 67 °F (2007)
Min Temperature 19 °F 22 °F 11 °F (2011)
Degree Days  
Heating Degree Days 23 29  
Month to date heating degree days 189 211  
Since 1 July heating degree days 4802 5055  
Cooling Degree Days 0 0  
Month to date cooling degree days 0 0  
Year to date cooling degree days 0 0  
Moisture  
Dew Point 22 °F    
Average Humidity 55    
Maximum Humidity 92    
Minimum Humidity 18    
Precipitation  
Precipitation 0.00 in 0.01 in 0.26 in (2014)
Month to date precipitation 0.00 0.08  
Year to date precipitation 0.39 0.68  
Sea Level Pressure  
Sea Level Pressure 29.93 in    
Wind  
Wind Speed 8 mph (ENE)    
Max Wind Speed 24 mph    
Max Gust Speed 30 mph    
Visibility 10 miles    
Events      
T = Trace of Precipitation, MM = Missing Value Source: NWS Daily Summary

Daily Weather History Graph

Daily Weather History Graph

Search for Another Location

Airport:

Trip Planner

Search our weather history database for the weather conditions in past years. The results will help you decide how hot, cold, wet, or windy it might be!

Date:

Astronomy

Mar. 07, 2013 Rise Set
Actual Time 6:21 AM MST 5:54 PM MST
Civil Twilight 5:53 AM MST 6:22 PM MST
Nautical Twilight 5:21 AM MST 6:54 PM MST
Astronomical Twilight 4:48 AM MST 7:27 PM MST
Moon 3:26 AM MST (3/7) 1:41 PM MST (3/7)
Length of Visible Light 12h 28m
Length of Day
11h 32m
Waning Crescent, 19% of the Moon is Illuminated
Mar 7
Waning Crescent
Mar 11
New
Mar 19
First Quarter
Mar 27
Full
Apr 2
Last Quarter

Hourly Weather History & Observations

Time (MST) Temp. Windchill Dew Point Humidity Pressure Visibility Wind Dir Wind Speed Gust Speed Precip Events Conditions
12:53 AM 28.9 °F 21.9 °F 23.0 °F 78% 29.83 in 10.0 mi SE 6.9 mph - N/A   Clear
1:53 AM 26.1 °F 16.8 °F 21.9 °F 84% 29.83 in 10.0 mi East 9.2 mph - N/A   Clear
2:53 AM 25.0 °F 17.1 °F 21.9 °F 88% 29.83 in 10.0 mi East 6.9 mph - N/A   Clear
3:53 AM 23.0 °F - 19.9 °F 88% 29.86 in 10.0 mi Calm Calm - N/A   Clear
4:53 AM 21.9 °F 15.7 °F 19.9 °F 92% 29.87 in 10.0 mi Variable 4.6 mph - N/A   Clear
5:53 AM 23.0 °F 13.1 °F 19.9 °F 88% 29.93 in 10.0 mi WSW 9.2 mph - N/A   Clear
6:53 AM 21.9 °F 14.5 °F 18.0 °F 85% 29.97 in 10.0 mi NW 5.8 mph - N/A   Clear
7:53 AM 28.0 °F - 23.0 °F 81% 29.99 in 10.0 mi Calm Calm - N/A   Clear
8:53 AM 34.0 °F 28.8 °F 25.0 °F 70% 29.99 in 10.0 mi WNW 5.8 mph - N/A   Partly Cloudy
9:53 AM 41.0 °F 37.1 °F 26.1 °F 55% 29.98 in 10.0 mi West 5.8 mph - N/A   Clear
10:53 AM 53.1 °F - 26.1 °F 35% 29.94 in 10.0 mi Calm Calm - N/A   Clear
11:53 AM 60.1 °F - 24.1 °F 25% 29.91 in 10.0 mi North 3.5 mph - N/A   Clear
12:53 PM 61.0 °F - 21.0 °F 21% 29.91 in 10.0 mi Variable 3.5 mph - N/A   Clear
1:53 PM 62.1 °F - 19.9 °F 20% 29.90 in 10.0 mi Calm Calm - N/A   Clear
2:53 PM 64.0 °F - 19.9 °F 18% 29.89 in 10.0 mi WSW 5.8 mph - N/A   Clear
3:53 PM 64.0 °F - 19.9 °F 18% 29.89 in 10.0 mi SSW 4.6 mph - N/A   Partly Cloudy
4:53 PM 61.0 °F - 19.0 °F 20% 29.91 in 10.0 mi SE 3.5 mph - N/A   Overcast
5:53 PM 55.9 °F - 21.0 °F 26% 29.93 in 10.0 mi ENE 10.4 mph - N/A   Mostly Cloudy
6:53 PM 50.0 °F - 24.1 °F 36% 29.98 in 10.0 mi ENE 17.3 mph - N/A   Clear
7:53 PM 46.0 °F 38.8 °F 26.1 °F 46% 29.99 in 10.0 mi ENE 18.4 mph 25.3 mph N/A   Clear
8:53 PM 43.0 °F 33.8 °F 25.0 °F 49% 30.00 in 10.0 mi ENE 23.0 mph 29.9 mph N/A   Clear
9:53 PM 39.9 °F 30.5 °F 24.1 °F 53% 30.01 in 10.0 mi ENE 19.6 mph - N/A   Clear
10:53 PM 37.9 °F 29.2 °F 24.1 °F 57% 29.99 in 10.0 mi ENE 15.0 mph - N/A   Clear
11:53 PM 36.0 °F 27.1 °F 24.1 °F 62% 30.01 in 10.0 mi East 13.8 mph - N/A   Clear